Tracking 35331 objects as of 16-Sep-2026
HD Live streaming from Space Station
objects crossing your sky now

COSMOS 1484 DEB


COSMOS 1484 DEB is no longer on orbit


NORAD ID: 22897
Int'l Code: 1983-075P
Launch date: July 24, 1983
Source: Commonwealth of Independent States (former USSR) (CIS)
Launch site: TYURATAM MISSILE AND SPACE COMPLEX (TTMTR)
Decay date: 1999-11-21

Note: This is SATELLITE DEBRIS
Your satellite tracking list
Your tracking list is empty




NASA's NSSDC Master Catalog

Two Line Element Set (TLE):
1 22897U 83075P   99325.14209026 +.08154459 +37077-0 +17763-1 0  9998
2 22897 097.9640 025.9748 0019204 011.7753 349.0665 16.08706100328128
Source of the keplerian elements: AFSPC